Regional Weather Roundup
Issued by NWS

Home | Current Version | Previous Version | Graphics & Text | Print | Product List | Glossary On
Versions: 1 2 3 4 5 6 7 8 9 10 11 12 13 14 15 16 17 18 19 20 21 22 23 24 25 26 27 28 29 30 31 32 33 34 35 36 37 38 39 40 41 42 43 44 45 46 47 48 49 50
000
ASUS43 KIND 212259
RWRIN

WEATHER ROUNDUP FOR INDIANA
NATIONAL WEATHER SERVICE INDIANAPOLIS IN
700 PM EDT TUE OCT 21 2014

NOTE: "FAIR" INDICATES FEW OR NO CLOUDS BELOW 12,000 FEET WITH NO
SIGNIFICANT WEATHER AND/OR OBSTRUCTIONS TO VISIBILITY.

* - STATION DOES NOT REPORT WEATHER SUCH AS PRECIPITATION OR FOG.

+ - STATION NOT QUALITY CONTROLLED BY THE NATIONAL WEATHER SERVICE.
    USE DATA WITH CAUTION...ESPECIALLY DEWPOINT AND RELATIVE
    HUMIDITY OBSERVATIONS.

INZ001>003-010>013-019-020-220000-
NORTHWEST INDIANA

CITY           SKY/WX    TMP DP  RH WIND       PRES   REMARKS
VALPARAISO     NOT AVBL

$$

LMZ046-743>745-220000-
SOUTHERN LAKE MICHIGAN

STATION/POSITION TIME  TEMP WIND        PRES
                       AIR  DIR/SP/G
                 (UTC) (F)  (DEG/KT/KT) (MB)
MICHIGAN CITY    2200   50  360/ 18/ 21   N/A

$$

INZ004-005-014>016-021>024-220000-
NORTH CENTRAL INDIANA

CITY           SKY/WX    TMP DP  RH WIND       PRES   REMARKS
GOSHEN         CLOUDY    48  38  68 N8        30.17R
PERU/GRISSOM   CLOUDY    52  45  76 N8        30.14R
SOUTH BEND     CLOUDY    49  38  65 NE10      30.18R

$$

INZ006>009-017-018-025>027-220000-
NORTHEAST INDIANA

CITY           SKY/WX    TMP DP  RH WIND       PRES   REMARKS
ANGOLA *+      CLOUDY    46  28  49 N3        30.16R
FORT WAYNE     CLOUDY    49  38  65 N9        30.16R

$$

INZ028-029-035-036-043>045-051>053-220000-
WEST CENTRAL INDIANA

CITY           SKY/WX    TMP DP  RH WIND       PRES   REMARKS
GREENCASTLE +  CLOUDY    52  43  71 N7        30.14S
LAFAYETTE      CLEAR     50  40  68 N8        30.15S
TERRE HAUTE    CLOUDY    55  40  56 N7        30.15R

$$

INZ030>032-037>040-046>048-054>057-064-065-220000-
CENTRAL INDIANA

CITY           SKY/WX    TMP DP  RH WIND       PRES   REMARKS
COLUMBUS       CLOUDY    54  45  71 N7        30.12
INDIANAPOLIS   MOCLDY    53  42  66 N8        30.12R
-EAGLE CREEK   MOCLDY    53  42  66 N7        30.13R
KOKOMO *+      CLOUDY    52  37  58 NE13      30.15R
MT COMFORT *+  MOCLDY    52  36  54 N8        30.13R
SHELBYVILLE    CLOUDY    55  42  61 N5        30.12R

$$

INZ033-034-041-042-049-050-058-059-220000-
EAST CENTRAL INDIANA

CITY           SKY/WX    TMP DP  RH WIND       PRES   REMARKS
MUNCIE         CLOUDY    52  42  69 N7        30.13R

$$

INZ060-061-067>069-081>083-085>088-220000-
SOUTHWEST INDIANA

CITY           SKY/WX    TMP DP  RH WIND       PRES   REMARKS
EVANSVILLE     CLEAR     60  40  47 N8        30.12R
HUNTINGBURG *+ CLEAR     55  39  54 NE8       30.13R

$$

INZ062-063-066-070>080-084-089>092-220000-
SOUTH CENTRAL AND SOUTHEAST INDIANA

CITY           SKY/WX    TMP DP  RH WIND       PRES   REMARKS
BLOOMINGTON    CLOUDY    54  41  61 N8        30.13R

$$




USA.gov is the U.S. government's official web portal to all federal, state and local government web resources and services.